Weather History for Hot Springs, VA

Change the Weather History Date:

Saturday, January 17, 2004

  Actual Average Record
Temperature  
Mean Temperature 27 °F -  
Max Temperature 42 °F 29 °F 50 °F (2012)
Min Temperature 12 °F 16 °F -14 °F (1997)
Degree Days  
Heating Degree Days 38    
Moisture  
Dew Point 13 °F    
Average Humidity 55    
Maximum Humidity 80    
Minimum Humidity 38    
Precipitation  
Precipitation 0.00 in - - ()
Sea Level Pressure  
Sea Level Pressure 30.00 in    
Wind  
Wind Speed 9 mph (WSW)    
Max Wind Speed 12 mph    
Max Gust Speed -    
Visibility 10 miles    
Events      
Averages and records for this station are not official NWS values.
T = Trace of Precipitation, MM = Missing Value Source: NWS Daily Summary

Daily Weather History Graph

Daily Weather History Graph

Search for Another Location

Airport:

Trip Planner

Search our weather history database for the weather conditions in past years. The results will help you decide how hot, cold, wet, or windy it might be!

Date:

Astronomy

Jan. 17, 2004 Rise Set
Actual Time 7:33 AM EST 5:25 PM EST
Civil Twilight 7:04 AM EST 5:54 PM EST
Nautical Twilight 6:32 AM EST 6:26 PM EST
Astronomical Twilight 6:01 AM EST 6:57 PM EST
Moon 3:08 AM EST (1/17) 1:13 PM EST (1/17)
Length of Visible Light 10h 49m
Length of Day
9h 51m
Waning Crescent, 23% of the Moon is Illuminated
Jan 17
Waning Crescent
Jan 21
New
Jan 29
First Quarter
Feb 6
Full
Feb 13
Last Quarter

Hourly Weather History & Observations

Time (EST) Temp. Windchill Dew Point Humidity Pressure Visibility Wind Dir Wind Speed Gust Speed Precip Events Conditions
12:00 AM 12.2 °F -0.2 °F -0.4 °F 57% 30.04 in 10.0 mi West 9.2 mph - N/A   Clear
12:20 AM 12.2 °F -1.0 °F 1.4 °F 62% 30.03 in 10.0 mi WNW 10.4 mph - N/A   Clear
12:40 AM 14.0 °F 1.2 °F -2.2 °F 49% 30.05 in 10.0 mi West 10.4 mph - N/A   Unknown
1:00 AM 12.2 °F -0.2 °F -2.2 °F 53% 30.04 in 10.0 mi West 9.2 mph - N/A   Unknown
1:20 AM 12.2 °F -0.2 °F -0.4 °F 57% 30.05 in 10.0 mi West 9.2 mph - N/A   Unknown
1:40 AM 14.0 °F 1.2 °F -2.2 °F 49% 30.04 in 10.0 mi WNW 10.4 mph - N/A   Unknown
2:00 AM 15.8 °F 4.2 °F -2.2 °F 45% 30.04 in 10.0 mi WNW 9.2 mph - N/A   Clear
2:20 AM 17.6 °F 8.2 °F -0.4 °F 45% 30.04 in 10.0 mi WNW 6.9 mph - N/A   Clear
2:40 AM 19.4 °F 9.5 °F -0.4 °F 42% 30.04 in 10.0 mi WNW 8.1 mph - N/A   Clear
3:00 AM 17.6 °F 6.4 °F -4.0 °F 38% 30.05 in 10.0 mi West 9.2 mph - N/A   Clear
3:20 AM 15.8 °F 3.4 °F -5.8 °F 38% 30.05 in 10.0 mi West 10.4 mph - N/A   Clear
3:40 AM 17.6 °F 7.3 °F -0.4 °F 45% 30.04 in 10.0 mi West 8.1 mph - N/A   Clear
4:00 AM 19.4 °F 8.6 °F -0.4 °F 42% 30.04 in 10.0 mi West 9.2 mph - N/A   Clear
4:20 AM 19.4 °F 8.6 °F -2.2 °F 39% 30.04 in 10.0 mi West 9.2 mph - N/A   Clear
4:40 AM 19.4 °F 8.6 °F -0.4 °F 42% 30.03 in 10.0 mi WNW 9.2 mph - N/A   Clear
5:00 AM 21.2 °F 10.1 °F 3.2 °F 46% 30.04 in 10.0 mi West 10.4 mph - N/A   Clear
5:20 AM 23.0 °F 11.7 °F 12.2 °F 63% 30.04 in 10.0 mi West 11.5 mph - N/A   Clear
5:40 AM 24.8 °F 15.3 °F 17.6 °F 74% 30.04 in 10.0 mi West 9.2 mph - N/A   Clear
6:00 AM 24.8 °F 15.3 °F 17.6 °F 74% 30.03 in 10.0 mi West 9.2 mph - N/A   Clear
6:20 AM 24.8 °F 15.3 °F 19.4 °F 80% 30.04 in 10.0 mi West 9.2 mph - N/A   Clear
6:40 AM 24.8 °F 14.6 °F 19.4 °F 80% 30.05 in 10.0 mi West 10.4 mph - N/A   Clear
7:00 AM 24.8 °F 14.6 °F 17.6 °F 74% 30.05 in 10.0 mi WSW 10.4 mph - N/A   Scattered Clouds
7:20 AM 24.8 °F 14.6 °F 19.4 °F 80% 30.05 in 10.0 mi West 10.4 mph - N/A   Unknown
7:40 AM 24.8 °F 15.3 °F 15.8 °F 69% 30.05 in 10.0 mi West 9.2 mph - N/A   Overcast
8:00 AM 26.6 °F 16.8 °F 15.8 °F 64% 30.04 in 10.0 mi WSW 10.4 mph - N/A   Unknown
8:20 AM 26.6 °F 16.2 °F 10.4 °F 51% 30.05 in 10.0 mi West 11.5 mph - N/A   Unknown
8:40 AM 28.4 °F 19.7 °F 12.2 °F 51% 30.04 in 10.0 mi West 9.2 mph - N/A   Unknown
9:00 AM 28.4 °F 19.7 °F 14.0 °F 55% 30.04 in 10.0 mi West 9.2 mph - N/A   Unknown
9:20 AM 30.2 °F 20.8 °F 14.0 °F 51% 30.05 in 10.0 mi West 11.5 mph - N/A   Unknown
9:40 AM 30.2 °F 21.3 °F 15.8 °F 55% 30.05 in 10.0 mi West 10.4 mph - N/A   Overcast
10:00 AM 32.0 °F 24.2 °F 19.4 °F 60% 30.04 in 10.0 mi West 9.2 mph - N/A   Unknown
10:20 AM 32.0 °F 24.8 °F 19.4 °F 60% 30.04 in 10.0 mi WSW 8.1 mph - N/A   Unknown
10:40 AM 33.8 °F 27.7 °F 24.8 °F 70% 30.05 in 10.0 mi West 6.9 mph - N/A   Unknown
11:00 AM 33.8 °F 26.4 °F 24.8 °F 70% 30.04 in 10.0 mi WSW 9.2 mph - N/A   Unknown
11:20 AM 37.4 °F 30.8 °F 26.6 °F 65% 30.03 in 10.0 mi WSW 9.2 mph - N/A   Unknown
11:40 AM 35.6 °F 28.0 °F 23.0 °F 60% 30.02 in 10.0 mi WSW 10.4 mph - N/A   Unknown
12:00 PM 39.2 °F 32.0 °F 23.0 °F 52% 30.01 in 10.0 mi WSW 11.5 mph - N/A   Mostly Cloudy
12:20 PM 39.2 °F 33.0 °F 21.2 °F 49% 30.00 in 10.0 mi WSW 9.2 mph - N/A   Scattered Clouds
12:40 PM 39.2 °F 32.5 °F 21.2 °F 49% 29.99 in 10.0 mi SW 10.4 mph - N/A   Mostly Cloudy
1:00 PM 39.2 °F 32.0 °F 17.6 °F 42% 29.97 in 10.0 mi WSW 11.5 mph - N/A   Mostly Cloudy
1:20 PM 39.2 °F 33.0 °F 17.6 °F 42% 29.96 in 10.0 mi WSW 9.2 mph - N/A   Overcast
1:40 PM 39.2 °F 33.0 °F 17.6 °F 42% 29.95 in 10.0 mi WSW 9.2 mph - N/A   Mostly Cloudy
2:00 PM 41.0 °F 34.7 °F 19.4 °F 42% 29.94 in 10.0 mi SW 10.4 mph - N/A   Mostly Cloudy
2:20 PM 42.8 °F 38.0 °F 21.2 °F 42% 29.93 in 10.0 mi SW 8.1 mph - N/A   Overcast
2:40 PM 41.0 °F 34.7 °F 21.2 °F 45% 29.93 in 10.0 mi SW 10.4 mph - N/A   Overcast
3:00 PM 41.0 °F 35.2 °F 21.2 °F 45% 29.93 in 10.0 mi SW 9.2 mph - N/A   Overcast
3:20 PM 39.2 °F 35.9 °F 21.2 °F 49% 29.92 in 10.0 mi SSW 4.6 mph - N/A   Mostly Cloudy
3:40 PM 37.4 °F 32.1 °F 19.4 °F 48% 29.92 in 10.0 mi SW 6.9 mph - N/A   Unknown
4:00 PM 39.2 °F 35.9 °F 21.2 °F 49% 29.92 in 10.0 mi SSW 4.6 mph - N/A   Unknown
4:20 PM 35.6 °F 32.8 °F 17.6 °F 48% 29.91 in 10.0 mi South 3.5 mph - N/A   Unknown
4:40 PM 33.8 °F 29.6 °F 19.4 °F 56% 29.91 in 10.0 mi South 4.6 mph - N/A   Unknown
5:00 PM 33.8 °F 27.7 °F 19.4 °F 56% 29.90 in 10.0 mi South 6.9 mph - N/A   Unknown
5:20 PM 30.2 °F 22.6 °F 15.8 °F 55% 29.90 in 10.0 mi South 8.1 mph - N/A   Unknown
5:40 PM 32.0 °F 24.2 °F 21.2 °F 64% 29.89 in 10.0 mi SSW 9.2 mph - N/A   Overcast
6:00 PM 32.0 °F 24.2 °F 19.4 °F 60% 29.88 in 10.0 mi South 9.2 mph - N/A   Overcast
6:20 PM 30.2 °F 21.9 °F 21.2 °F 69% 29.87 in 10.0 mi South 9.2 mph - N/A   Mostly Cloudy
6:40 PM 30.2 °F 22.6 °F 17.6 °F 60% 29.87 in 10.0 mi South 8.1 mph - N/A   Unknown
7:00 PM 28.4 °F 19.7 °F 19.4 °F 69% 29.87 in 10.0 mi South 9.2 mph - N/A   Unknown
7:20 PM 30.2 °F 21.9 °F 21.2 °F 69% 29.86 in 10.0 mi South 9.2 mph - N/A   Overcast
7:40 PM 30.2 °F 23.4 °F 21.2 °F 69% 29.85 in 10.0 mi SSW 6.9 mph - N/A   Unknown
8:00 PM 32.0 °F 25.6 °F 24.8 °F 75% 29.84 in 10.0 mi SSW 6.9 mph - N/A   Overcast
8:20 PM 33.8 °F 27.0 °F 26.6 °F 75% 29.84 in 10.0 mi SSW 8.1 mph - N/A   Overcast
8:40 PM 33.8 °F 26.4 °F 28.4 °F 81% 29.84 in 7.0 mi SW 9.2 mph 16.1 mph N/A   Overcast
9:00 PM 33.8 °F 25.3 °F 30.2 °F 87% 29.83 in 7.0 mi SW 11.5 mph - N/A   Overcast
9:20 PM 33.8 °F 25.3 °F 30.2 °F 87% 29.83 in 5.0 mi SW 11.5 mph - N/A   Overcast
9:40 PM 33.8 °F 24.3 °F 30.2 °F 87% 29.82 in 7.0 mi SW 13.8 mph - N/A   Overcast
10:00 PM 33.8 °F 23.9 °F 32.0 °F 93% 29.81 in 5.0 mi SW 15.0 mph - N/A   Overcast
10:20 PM 33.8 °F 24.8 °F 33.8 °F 100% 29.80 in 5.0 mi WSW 12.7 mph 18.4 mph N/A   Overcast
10:40 PM 32.0 °F 22.1 °F 32.0 °F 100% 29.80 in 4.0 mi SW 13.8 mph - N/A   Overcast
11:00 PM 33.8 °F 25.3 °F 33.8 °F 100% 29.79 in 3.0 mi SW 11.5 mph - N/A   Overcast
11:20 PM 33.8 °F 25.8 °F 33.8 °F 100% 29.79 in 3.0 mi SW 10.4 mph - N/A   Overcast
11:40 PM 33.8 °F 25.8 °F 33.8 °F 100% 29.78 in 1.8 mi WSW 10.4 mph - N/A   Unknown